Weather History for KELN - October, 2012

Change the Weather History Date:

Monday, October 8, 2012

  Actual Average (KYKM) Record (KYKM)
Temperature  
Mean Temperature 52 °F 52 °F  
Max Temperature 73 °F 68 °F 84 °F (1988)
Min Temperature 32 °F 36 °F 23 °F (1985)
Degree Days  
Heating Degree Days 12 13  
Month to date heating degree days 91  
Since 1 July heating degree days 299  
Cooling Degree Days 0 0  
Month to date cooling degree days 0  
Year to date cooling degree days 472  
Growing Degree Days 2 (Base 50)    
Moisture  
Dew Point 30 °F    
Average Humidity 49    
Maximum Humidity 73    
Minimum Humidity 21    
Precipitation  
Precipitation 0.00 in 0.01 in 0.68 in (1997)
Month to date precipitation 0.10  
Year to date precipitation 5.23  
Snow  
Snow 0.00 in 0.00 in 0.00 in (2002)
Month to date snowfall 0.0  
Year to date snowfall 8.6  
Since 1 July snowfall 0.0  
Snow Depth -    
Sea Level Pressure  
Sea Level Pressure 29.96 in    
Wind  
Wind Speed 1 mph (NNE)    
Max Wind Speed 8 mph    
Max Gust Speed -    
Visibility 8 miles    
Events      
T = Trace of Precipitation, MM = Missing Value Source: NWS Daily Summary

Daily Weather History Graph

Daily Weather History Graph

Search for Another Location

Airport or City:

Trip Planner

Search our weather history database for the weather conditions in past years. The results will help you decide how hot, cold, wet, or windy it might be!

Date:

Astronomy

Oct. 08, 2012 Rise Set
Actual Time 7:11 AM PDT 6:26 PM PDT
Civil Twilight 6:40 AM PDT 6:57 PM PDT
Nautical Twilight 6:05 AM PDT 7:32 PM PDT
Astronomical Twilight 5:29 AM PDT 8:07 PM PDT
Moon No Moon Rise 2:43 PM PDT (10/8)
Length of Visible Light 12h 16m
Length of Day
11h 15m
Last Quarter, 45% of the Moon is Illuminated
Oct 8
Last Quarter
Oct 15
New
Oct 21
First Quarter
Oct 29
Full
Nov 6
Last Quarter

Hourly Weather History & Observations

Time (PDT) Temp. Windchill Dew Point Humidity Pressure Visibility Wind Dir Wind Speed Gust Speed Precip Events Conditions
12:53 AM 41.0 °F 39.0 °F 26.1 °F 55% 29.99 in 10.0 mi East 3.5 mph - N/A   Clear
1:53 AM 37.9 °F - 27.0 °F 65% 29.98 in 8.0 mi Calm Calm - N/A   Clear
2:53 AM 35.1 °F 32.2 °F 25.0 °F 67% 29.97 in 7.0 mi NNE 3.5 mph - N/A   Clear
3:53 AM 35.1 °F - 25.0 °F 67% 29.97 in 7.0 mi Calm Calm - N/A   Clear
4:53 AM 33.1 °F - 24.1 °F 70% 29.98 in 6.0 mi Calm Calm - N/A   Haze
5:53 AM 33.1 °F - 24.1 °F 70% 29.98 in 7.0 mi Calm Calm - N/A   Clear
6:53 AM 32.0 °F 27.5 °F 24.1 °F 73% 29.99 in 6.0 mi North 4.6 mph - N/A   Haze
7:53 AM 34.0 °F 31.0 °F 25.0 °F 70% 30.00 in 6.0 mi NW 3.5 mph - N/A   Haze
8:53 AM 44.1 °F - 28.0 °F 53% 29.99 in 8.0 mi Calm Calm - N/A   Clear
9:53 AM 48.9 °F - 30.0 °F 48% 29.98 in 9.0 mi Calm Calm - N/A   Clear
10:53 AM 53.1 °F - 32.0 °F 45% 29.98 in 8.0 mi Calm Calm - N/A   Clear
11:53 AM 59.0 °F - 32.0 °F 36% 29.96 in 5.0 mi Calm Calm - N/A   Haze
12:53 PM 64.9 °F - 30.9 °F 28% 29.94 in 3.0 mi Calm Calm - N/A   Haze
1:46 PM 66.2 °F - 33.8 °F 30% 29.92 in 5.0 mi Calm Calm - N/A   Haze
1:53 PM 68.0 °F - 34.0 °F 28% 29.93 in 5.0 mi Calm Calm - N/A   Haze
2:53 PM 73.0 °F - 30.9 °F 21% 29.91 in 10.0 mi Calm Calm - N/A   Clear
3:53 PM 73.0 °F - 34.0 °F 24% 29.90 in 9.0 mi Calm Calm - N/A   Clear
5:53 PM 71.1 °F - 36.0 °F 28% 29.90 in 10.0 mi Calm Calm - N/A   Clear
7:53 PM 53.1 °F - 35.1 °F 50% 29.94 in 10.0 mi NNE 8.1 mph - N/A   Clear
8:53 PM 55.0 °F - 35.1 °F 47% 29.95 in 10.0 mi Calm Calm - N/A   Clear
9:53 PM 55.9 °F - 35.1 °F 45% 29.96 in 10.0 mi Calm Calm - N/A   Clear
10:53 PM 48.0 °F - 34.0 °F 58% 29.98 in 10.0 mi Calm Calm - N/A   Clear
11:53 PM 46.9 °F - 33.1 °F 59% 29.98 in 10.0 mi Calm Calm - N/A   Clear